Torna al catalogo

COSMOS 2094

AttivoMilitarePO
NORAD 20739·PAYLOAD·🇷🇺 Russia

Lanciato Aug 8, 1990 da Plesetsk Cosmodrome

Loading…

Prossimi Passaggi (prossime 24 ore)

TLE

AggiornatoSource: Space-Track

Epoca: Sep 14, 2026, 08:32 UTC

1 20739U 90070E   26257.35608256  .00000000  00000-0 -56536-4 0  9994
2 20739  82.5723 234.5990 0010301 244.3039 271.6255 12.64756563666496

Traccia COSMOS 2094 in tempo reale con AllMySat

Download on the App Store